Year,Month,Day,Hour,Minute,Value (Times are PST for barometer in hPa)
2009,05,05,00,00,989.54
2009,05,05,00,01,989.51
2009,05,05,00,02,989.55
2009,05,05,00,03,989.47
2009,05,05,00,04,989.47
2009,05,05,00,05,989.48
2009,05,05,00,06,989.53
2009,05,05,00,07,989.45
2009,05,05,00,08,989.49
2009,05,05,00,09,989.47
2009,05,05,00,10,989.47
2009,05,05,00,11,989.48
2009,05,05,00,12,989.41
2009,05,05,00,13,989.43
2009,05,05,00,14,989.40
2009,05,05,00,15,989.41
2009,05,05,00,16,989.43
2009,05,05,00,17,989.39
2009,05,05,00,18,989.34
2009,05,05,00,19,989.34
2009,05,05,00,20,989.19
2009,05,05,00,21,989.17
2009,05,05,00,22,989.27
2009,05,05,00,23,989.28
2009,05,05,00,24,989.36
2009,05,05,00,25,989.30
2009,05,05,00,26,989.26
2009,05,05,00,27,989.20
2009,05,05,00,28,989.20
2009,05,05,00,29,989.23
2009,05,05,00,30,989.23
2009,05,05,00,31,989.19
2009,05,05,00,32,989.17
2009,05,05,00,33,989.23
2009,05,05,00,34,989.27
2009,05,05,00,35,989.30
2009,05,05,00,36,989.31
2009,05,05,00,37,989.37
2009,05,05,00,38,989.37
2009,05,05,00,39,989.36
2009,05,05,00,40,989.34
2009,05,05,00,41,989.42
2009,05,05,00,42,989.34
2009,05,05,00,43,989.40
2009,05,05,00,44,989.40
2009,05,05,00,45,989.45
2009,05,05,00,46,989.50
2009,05,05,00,47,989.50
2009,05,05,00,48,989.50
2009,05,05,00,49,989.50
2009,05,05,00,50,989.49
2009,05,05,00,51,989.48
2009,05,05,00,52,989.56
2009,05,05,00,53,989.51
2009,05,05,00,54,989.54
2009,05,05,00,55,989.55
2009,05,05,00,56,989.60
2009,05,05,00,57,989.60
2009,05,05,00,58,989.57
2009,05,05,00,59,989.58
2009,05,05,01,00,989.64
2009,05,05,01,01,989.63
2009,05,05,01,02,989.55
2009,05,05,01,03,989.60
2009,05,05,01,04,989.58
2009,05,05,01,05,989.60
2009,05,05,01,06,989.62
2009,05,05,01,07,989.73
2009,05,05,01,08,989.71
2009,05,05,01,09,989.72
2009,05,05,01,10,989.81
2009,05,05,01,11,989.82
2009,05,05,01,12,989.88
2009,05,05,01,13,989.84
2009,05,05,01,14,989.79
2009,05,05,01,15,989.70
2009,05,05,01,16,989.64
2009,05,05,01,17,989.65
2009,05,05,01,18,989.70
2009,05,05,01,19,989.64
2009,05,05,01,20,989.68
2009,05,05,01,21,989.71
2009,05,05,01,22,989.74
2009,05,05,01,23,989.75
2009,05,05,01,24,989.80
2009,05,05,01,25,989.77
2009,05,05,01,26,989.76
2009,05,05,01,27,989.70
2009,05,05,01,28,989.68
2009,05,05,01,29,989.70
2009,05,05,01,30,989.60
2009,05,05,01,31,989.61
2009,05,05,01,32,989.65
2009,05,05,01,33,989.69
2009,05,05,01,34,989.56
2009,05,05,01,35,989.51
2009,05,05,01,36,989.53
2009,05,05,01,37,989.47
2009,05,05,01,38,989.51
2009,05,05,01,39,989.54
2009,05,05,01,40,989.57
2009,05,05,01,41,989.54
2009,05,05,01,42,989.54
2009,05,05,01,43,989.54
2009,05,05,01,44,989.53
2009,05,05,01,45,989.45
2009,05,05,01,46,989.57
2009,05,05,01,47,989.53
2009,05,05,01,48,989.47
2009,05,05,01,49,989.49
2009,05,05,01,50,989.48
2009,05,05,01,51,989.54
2009,05,05,01,52,989.51
2009,05,05,01,53,989.57
2009,05,05,01,54,989.60
2009,05,05,01,55,989.63
2009,05,05,01,56,989.57
2009,05,05,01,57,989.57
2009,05,05,01,58,989.60
2009,05,05,01,59,989.64
2009,05,05,02,00,989.64
2009,05,05,02,01,989.60
2009,05,05,02,02,989.58
2009,05,05,02,03,989.64
2009,05,05,02,04,989.67
2009,05,05,02,05,989.67
2009,05,05,02,06,989.71
2009,05,05,02,07,989.71
2009,05,05,02,08,989.70
2009,05,05,02,09,989.68
2009,05,05,02,10,989.74
2009,05,05,02,11,989.77
2009,05,05,02,12,989.78
2009,05,05,02,13,989.85
2009,05,05,02,14,989.91
2009,05,05,02,15,989.91
2009,05,05,02,16,989.89
2009,05,05,02,17,989.91
2009,05,05,02,18,989.88
2009,05,05,02,19,989.88
2009,05,05,02,20,989.90
2009,05,05,02,21,989.85
2009,05,05,02,22,989.88
2009,05,05,02,23,989.91
2009,05,05,02,24,989.89
2009,05,05,02,25,989.91
2009,05,05,02,26,989.89
2009,05,05,02,27,989.93
2009,05,05,02,28,989.91
2009,05,05,02,29,989.95
2009,05,05,02,30,989.98
2009,05,05,02,31,989.97
2009,05,05,02,32,989.95
2009,05,05,02,33,990.02
2009,05,05,02,34,990.03
2009,05,05,02,35,989.94
2009,05,05,02,36,989.97
2009,05,05,02,37,989.91
2009,05,05,02,38,989.87
2009,05,05,02,39,989.85
2009,05,05,02,40,989.90
2009,05,05,02,41,989.84
2009,05,05,02,42,989.89
2009,05,05,02,43,989.92
2009,05,05,02,44,989.98
2009,05,05,02,45,990.01
2009,05,05,02,46,990.01
2009,05,05,02,47,990.01
2009,05,05,02,48,990.04
2009,05,05,02,49,990.04
2009,05,05,02,50,990.02
2009,05,05,02,51,990.04
2009,05,05,02,52,990.07
2009,05,05,02,53,990.05
2009,05,05,02,54,990.09
2009,05,05,02,55,990.15
2009,05,05,02,56,990.17
2009,05,05,02,57,990.16
2009,05,05,02,58,990.26
2009,05,05,02,59,990.29
2009,05,05,03,00,990.35
2009,05,05,03,01,990.33
2009,05,05,03,02,990.41
2009,05,05,03,03,990.38
2009,05,05,03,04,990.38
2009,05,05,03,05,990.35
2009,05,05,03,06,990.32
2009,05,05,03,07,990.32
2009,05,05,03,08,990.32
2009,05,05,03,09,990.34
2009,05,05,03,10,990.42
2009,05,05,03,11,990.41
2009,05,05,03,12,990.35
2009,05,05,03,13,990.38
2009,05,05,03,14,990.38
2009,05,05,03,15,990.36
2009,05,05,03,16,990.41
2009,05,05,03,17,990.34
2009,05,05,03,18,990.29
2009,05,05,03,19,990.32
2009,05,05,03,20,990.36
2009,05,05,03,21,990.41
2009,05,05,03,22,990.36
2009,05,05,03,23,990.42
2009,05,05,03,24,990.42
2009,05,05,03,25,990.45
2009,05,05,03,26,990.42
2009,05,05,03,27,990.42
2009,05,05,03,28,990.44
2009,05,05,03,29,990.37
2009,05,05,03,30,990.34
2009,05,05,03,31,990.41
2009,05,05,03,32,990.38
2009,05,05,03,33,990.38
2009,05,05,03,34,990.38
2009,05,05,03,35,990.38
2009,05,05,03,36,990.36
2009,05,05,03,37,990.41
2009,05,05,03,38,990.36
2009,05,05,03,39,990.42
2009,05,05,03,40,990.42
2009,05,05,03,41,990.41
2009,05,05,03,42,990.39
2009,05,05,03,43,990.45
2009,05,05,03,44,990.44
2009,05,05,03,45,990.38
2009,05,05,03,46,990.40
2009,05,05,03,47,990.48
2009,05,05,03,48,990.38
2009,05,05,03,49,990.43
2009,05,05,03,50,990.54
2009,05,05,03,51,990.53
2009,05,05,03,52,990.59
2009,05,05,03,53,990.56
2009,05,05,03,54,990.59
2009,05,05,03,55,990.59
2009,05,05,03,56,990.61
2009,05,05,03,57,990.59
2009,05,05,03,58,990.59
2009,05,05,03,59,990.59
2009,05,05,04,00,990.59
2009,05,05,04,01,990.62
2009,05,05,04,02,990.63
2009,05,05,04,03,990.70
2009,05,05,04,04,990.77
2009,05,05,04,05,990.82
2009,05,05,04,06,990.80
2009,05,05,04,07,990.73
2009,05,05,04,08,990.79
2009,05,05,04,09,990.83
2009,05,05,04,10,990.87
2009,05,05,04,11,990.93
2009,05,05,04,12,990.93
2009,05,05,04,13,990.93
2009,05,05,04,14,990.96
2009,05,05,04,15,990.98
2009,05,05,04,16,990.96
2009,05,05,04,17,991.00
2009,05,05,04,18,991.03
2009,05,05,04,19,991.04
2009,05,05,04,20,990.96
2009,05,05,04,21,990.99
2009,05,05,04,22,990.99
2009,05,05,04,23,991.00
2009,05,05,04,24,991.03
2009,05,05,04,25,991.06
2009,05,05,04,26,991.05
2009,05,05,04,27,991.04
2009,05,05,04,28,991.12
2009,05,05,04,29,991.09
2009,05,05,04,30,991.09
2009,05,05,04,31,991.10
2009,05,05,04,32,991.13
2009,05,05,04,33,991.17
2009,05,05,04,34,991.21
2009,05,05,04,35,991.26
2009,05,05,04,36,991.27
2009,05,05,04,37,991.30
2009,05,05,04,38,991.30
2009,05,05,04,39,991.34
2009,05,05,04,40,991.41
2009,05,05,04,41,991.50
2009,05,05,04,42,991.50
2009,05,05,04,43,991.54
2009,05,05,04,44,991.65
2009,05,05,04,45,991.71
2009,05,05,04,46,991.76
2009,05,05,04,47,991.84
2009,05,05,04,48,991.83
2009,05,05,04,49,991.90
2009,05,05,04,50,991.88
2009,05,05,04,51,991.92
2009,05,05,04,52,991.98
2009,05,05,04,53,991.98
2009,05,05,04,54,992.01
2009,05,05,04,55,992.04
2009,05,05,04,56,992.04
2009,05,05,04,57,992.08
2009,05,05,04,58,992.08
2009,05,05,04,59,992.09
2009,05,05,05,00,992.18
2009,05,05,05,01,992.15
2009,05,05,05,02,992.18
2009,05,05,05,03,992.17
2009,05,05,05,04,992.15
2009,05,05,05,05,992.22
2009,05,05,05,06,992.27
2009,05,05,05,07,992.22
2009,05,05,05,08,992.26
2009,05,05,05,09,992.28
2009,05,05,05,10,992.25
2009,05,05,05,11,992.25
2009,05,05,05,12,992.26
2009,05,05,05,13,992.29
2009,05,05,05,14,992.35
2009,05,05,05,15,992.35
2009,05,05,05,16,992.35
2009,05,05,05,17,992.35
2009,05,05,05,18,992.35
2009,05,05,05,19,992.38
2009,05,05,05,20,992.36
2009,05,05,05,21,992.42
2009,05,05,05,22,992.47
2009,05,05,05,23,992.55
2009,05,05,05,24,992.54
2009,05,05,05,25,992.51
2009,05,05,05,26,992.66
2009,05,05,05,27,992.70
2009,05,05,05,28,992.75
2009,05,05,05,29,992.76
2009,05,05,05,30,992.79
2009,05,05,05,31,992.79
2009,05,05,05,32,992.83
2009,05,05,05,33,992.88
2009,05,05,05,34,992.80
2009,05,05,05,35,992.89
2009,05,05,05,36,992.89
2009,05,05,05,37,992.91
2009,05,05,05,38,992.87
2009,05,05,05,39,992.93
2009,05,05,05,40,992.97
2009,05,05,05,41,992.92
2009,05,05,05,42,993.09
2009,05,05,05,43,993.09
2009,05,05,05,44,993.07
2009,05,05,05,45,993.13
2009,05,05,05,46,993.14
2009,05,05,05,47,993.17
2009,05,05,05,48,993.26
2009,05,05,05,49,993.25
2009,05,05,05,50,993.21
2009,05,05,05,51,993.30
2009,05,05,05,52,993.33
2009,05,05,05,53,993.36
2009,05,05,05,54,993.37
2009,05,05,05,55,993.43
2009,05,05,05,56,993.44
2009,05,05,05,57,993.53
2009,05,05,05,58,993.51
2009,05,05,05,59,993.53
2009,05,05,06,00,993.53
2009,05,05,06,01,993.54
2009,05,05,06,02,993.57
2009,05,05,06,03,993.59
2009,05,05,06,04,993.67
2009,05,05,06,05,993.70
2009,05,05,06,06,993.68
2009,05,05,06,07,993.78
2009,05,05,06,08,993.84
2009,05,05,06,09,993.84
2009,05,05,06,10,993.81
2009,05,05,06,11,993.87
2009,05,05,06,12,993.87
2009,05,05,06,13,993.89
2009,05,05,06,14,993.97
2009,05,05,06,15,993.95
2009,05,05,06,16,993.97
2009,05,05,06,17,994.01
2009,05,05,06,18,994.01
2009,05,05,06,19,994.04
2009,05,05,06,20,994.04
2009,05,05,06,21,994.09
2009,05,05,06,22,994.18
2009,05,05,06,23,994.21
2009,05,05,06,24,994.22
2009,05,05,06,25,994.28
2009,05,05,06,26,994.27
2009,05,05,06,27,994.26
2009,05,05,06,28,994.35
2009,05,05,06,29,994.35
2009,05,05,06,30,994.39
2009,05,05,06,31,994.41
2009,05,05,06,32,994.39
2009,05,05,06,33,994.41
2009,05,05,06,34,994.41
2009,05,05,06,35,994.42
2009,05,05,06,36,994.49
2009,05,05,06,37,994.59
2009,05,05,06,38,994.62
2009,05,05,06,39,994.65
2009,05,05,06,40,994.64
2009,05,05,06,41,994.75
2009,05,05,06,42,994.76
2009,05,05,06,43,994.79
2009,05,05,06,44,994.83
2009,05,05,06,45,994.90
2009,05,05,06,46,994.96
2009,05,05,06,47,994.99
2009,05,05,06,48,995.03
2009,05,05,06,49,995.11
2009,05,05,06,50,995.07
2009,05,05,06,51,995.11
2009,05,05,06,52,995.08
2009,05,05,06,53,995.16
2009,05,05,06,54,995.17
2009,05,05,06,55,995.26
2009,05,05,06,56,995.24
2009,05,05,06,57,995.29
2009,05,05,06,58,995.27
2009,05,05,06,59,995.32
2009,05,05,07,00,995.29
2009,05,05,07,01,995.33
2009,05,05,07,02,995.33
2009,05,05,07,03,995.33
2009,05,05,07,04,995.37
2009,05,05,07,05,995.47
2009,05,05,07,06,995.50
2009,05,05,07,07,995.53
2009,05,05,07,08,995.55
2009,05,05,07,09,995.54
2009,05,05,07,10,995.63
2009,05,05,07,11,995.63
2009,05,05,07,12,995.63
2009,05,05,07,13,995.64
2009,05,05,07,14,995.68
2009,05,05,07,15,995.79
2009,05,05,07,16,995.95
2009,05,05,07,17,995.96
2009,05,05,07,18,995.92
2009,05,05,07,19,996.04
2009,05,05,07,20,996.08
2009,05,05,07,21,996.15
2009,05,05,07,22,996.20
2009,05,05,07,23,996.10
2009,05,05,07,24,996.09
2009,05,05,07,25,996.21
2009,05,05,07,26,996.22
2009,05,05,07,27,996.32
2009,05,05,07,28,996.39
2009,05,05,07,29,996.41
2009,05,05,07,30,996.46
2009,05,05,07,31,996.52
2009,05,05,07,32,996.58
2009,05,05,07,33,996.61
2009,05,05,07,34,996.65
2009,05,05,07,35,996.69
2009,05,05,07,36,996.73
2009,05,05,07,37,996.78
2009,05,05,07,38,996.75
2009,05,05,07,39,996.79
2009,05,05,07,40,996.86
2009,05,05,07,41,996.90
2009,05,05,07,42,996.95
2009,05,05,07,43,996.96
2009,05,05,07,44,997.02
2009,05,05,07,45,997.02
2009,05,05,07,46,997.06
2009,05,05,07,47,997.09
2009,05,05,07,48,997.13
2009,05,05,07,49,997.22
2009,05,05,07,50,997.23
2009,05,05,07,51,997.28
2009,05,05,07,52,997.22
2009,05,05,07,53,997.19
2009,05,05,07,54,997.22
2009,05,05,07,55,997.23
2009,05,05,07,56,997.27
2009,05,05,07,57,997.33
2009,05,05,07,58,997.36
2009,05,05,07,59,997.36
2009,05,05,08,00,997.40
2009,05,05,08,01,997.49
2009,05,05,08,02,997.46
2009,05,05,08,03,997.47
2009,05,05,08,04,997.51
2009,05,05,08,05,997.57
2009,05,05,08,06,997.60
2009,05,05,08,07,997.61
2009,05,05,08,08,997.66
2009,05,05,08,09,997.65
2009,05,05,08,10,997.73
2009,05,05,08,11,997.71
2009,05,05,08,12,997.78
2009,05,05,08,13,997.84
2009,05,05,08,14,997.88
2009,05,05,08,15,997.95
2009,05,05,08,16,998.01
2009,05,05,08,17,998.05
2009,05,05,08,18,998.10
2009,05,05,08,19,998.12
2009,05,05,08,20,998.21
2009,05,05,08,21,998.24
2009,05,05,08,22,998.21
2009,05,05,08,23,998.21
2009,05,05,08,24,998.23
2009,05,05,08,25,998.17
2009,05,05,08,26,998.21
2009,05,05,08,27,998.24
2009,05,05,08,28,998.25
2009,05,05,08,29,998.31
2009,05,05,08,30,998.28
2009,05,05,08,31,998.34
2009,05,05,08,32,998.35
2009,05,05,08,33,998.38
2009,05,05,08,34,998.35
2009,05,05,08,35,998.39
2009,05,05,08,36,998.41
2009,05,05,08,37,998.44
2009,05,05,08,38,998.46
2009,05,05,08,39,998.55
2009,05,05,08,40,998.61
2009,05,05,08,41,998.64
2009,05,05,08,42,998.52
2009,05,05,08,43,998.59
2009,05,05,08,44,998.70
2009,05,05,08,45,998.82
2009,05,05,08,46,998.82
2009,05,05,08,47,998.85
2009,05,05,08,48,998.82
2009,05,05,08,49,998.86
2009,05,05,08,50,998.92
2009,05,05,08,51,998.92
2009,05,05,08,52,998.95
2009,05,05,08,53,998.96
2009,05,05,08,54,999.03
2009,05,05,08,55,999.12
2009,05,05,08,56,999.10
2009,05,05,08,57,999.19
2009,05,05,08,58,999.19
2009,05,05,08,59,999.20
2009,05,05,09,00,999.27
2009,05,05,09,01,999.32
2009,05,05,09,02,999.33
2009,05,05,09,03,999.40
2009,05,05,09,04,999.46
2009,05,05,09,05,999.49
2009,05,05,09,06,999.53
2009,05,05,09,07,999.56
2009,05,05,09,08,999.59
2009,05,05,09,09,999.59
2009,05,05,09,10,999.64
2009,05,05,09,11,999.70
2009,05,05,09,12,999.71
2009,05,05,09,13,999.76
2009,05,05,09,14,999.74
2009,05,05,09,15,999.80
2009,05,05,09,16,999.84
2009,05,05,09,17,999.93
2009,05,05,09,18,999.92
2009,05,05,09,19,999.88
2009,05,05,09,20,999.98
2009,05,05,09,21,1000.04
2009,05,05,09,22,1000.10
2009,05,05,09,23,1000.10
2009,05,05,09,24,1000.08
2009,05,05,09,25,1000.14
2009,05,05,09,26,1000.14
2009,05,05,09,27,1000.10
2009,05,05,09,28,1000.07
2009,05,05,09,29,1000.11
2009,05,05,09,30,1000.14
2009,05,05,09,31,1000.14
2009,05,05,09,32,1000.17
2009,05,05,09,33,1000.20
2009,05,05,09,34,1000.20
2009,05,05,09,35,1000.20
2009,05,05,09,36,1000.20
2009,05,05,09,37,1000.20
2009,05,05,09,38,1000.24
2009,05,05,09,39,1000.24
2009,05,05,09,40,1000.24
2009,05,05,09,41,1000.25
2009,05,05,09,42,1000.30
2009,05,05,09,43,1000.27
2009,05,05,09,44,1000.28
2009,05,05,09,45,1000.32
2009,05,05,09,46,1000.37
2009,05,05,09,47,1000.37
2009,05,05,09,48,1000.38
2009,05,05,09,49,1000.41
2009,05,05,09,50,1000.45
2009,05,05,09,51,1000.51
2009,05,05,09,52,1000.48
2009,05,05,09,53,1000.51
2009,05,05,09,54,1000.51
2009,05,05,09,55,1000.48
2009,05,05,09,56,1000.51
2009,05,05,09,57,1000.53
2009,05,05,09,58,1000.48
2009,05,05,09,59,1000.51
2009,05,05,10,00,1000.51
2009,05,05,10,01,1000.49
2009,05,05,10,02,1000.54
2009,05,05,10,03,1000.58
2009,05,05,10,04,1000.62
2009,05,05,10,05,1000.68
2009,05,05,10,06,1000.64
2009,05,05,10,07,1000.65
2009,05,05,10,08,1000.71
2009,05,05,10,09,1000.75
2009,05,05,10,10,1000.79
2009,05,05,10,11,1000.88
2009,05,05,10,12,1000.88
2009,05,05,10,13,1000.92
2009,05,05,10,14,1000.91
2009,05,05,10,15,1000.88
2009,05,05,10,16,1000.90
2009,05,05,10,17,1000.99
2009,05,05,10,18,1001.08
2009,05,05,10,19,1001.09
2009,05,05,10,20,1001.16
2009,05,05,10,21,1001.22
2009,05,05,10,22,1001.22
2009,05,05,10,23,1001.23
2009,05,05,10,24,1001.29
2009,05,05,10,25,1001.29
2009,05,05,10,26,1001.34
2009,05,05,10,27,1001.42
2009,05,05,10,28,1001.46
2009,05,05,10,29,1001.45
2009,05,05,10,30,1001.40
2009,05,05,10,31,1001.53
2009,05,05,10,32,1001.63
2009,05,05,10,33,1001.66
2009,05,05,10,34,1001.66
2009,05,05,10,35,1001.66
2009,05,05,10,36,1001.63
2009,05,05,10,37,1001.63
2009,05,05,10,38,1001.63
2009,05,05,10,39,1001.63
2009,05,05,10,40,1001.56
2009,05,05,10,41,1001.66
2009,05,05,10,42,1001.73
2009,05,05,10,43,1001.60
2009,05,05,10,44,1001.63
2009,05,05,10,45,1001.76
2009,05,05,10,46,1001.69
2009,05,05,10,47,1001.73
2009,05,05,10,48,1001.73
2009,05,05,10,49,1001.80
2009,05,05,10,50,1001.86
2009,05,05,10,51,1001.86
2009,05,05,10,52,1001.97
2009,05,05,10,53,1001.97
2009,05,05,10,54,1001.97
2009,05,05,10,55,1001.97
2009,05,05,10,56,1001.97
2009,05,05,10,57,1001.93
2009,05,05,10,58,1001.90
2009,05,05,10,59,1001.86
2009,05,05,11,00,1001.93
2009,05,05,11,01,1002.00
2009,05,05,11,02,1002.10
2009,05,05,11,03,1002.08
2009,05,05,11,04,1002.24
2009,05,05,11,05,1002.24
2009,05,05,11,06,1002.27
2009,05,05,11,07,1002.30
2009,05,05,11,08,1002.34
2009,05,05,11,09,1002.30
2009,05,05,11,10,1002.30
2009,05,05,11,11,1002.30
2009,05,05,11,12,1002.37
2009,05,05,11,13,1002.44
2009,05,05,11,14,1002.47
2009,05,05,11,15,1002.47
2009,05,05,11,16,1002.51
2009,05,05,11,17,1002.51
2009,05,05,11,18,1002.47
2009,05,05,11,19,1002.51
2009,05,05,11,20,1002.51
2009,05,05,11,21,1002.54
2009,05,05,11,22,1002.54
2009,05,05,11,23,1002.51
2009,05,05,11,24,1002.54
2009,05,05,11,25,1002.54
2009,05,05,11,26,1002.71
2009,05,05,11,27,1002.74
2009,05,05,11,28,1002.78
2009,05,05,11,29,1002.78
2009,05,05,11,30,1002.81
2009,05,05,11,31,1002.91
2009,05,05,11,32,1003.01
2009,05,05,11,33,1003.05
2009,05,05,11,34,1003.08
2009,05,05,11,35,1003.15
2009,05,05,11,36,1003.18
2009,05,05,11,37,1003.18
2009,05,05,11,38,1003.25
2009,05,05,11,39,1003.32
2009,05,05,11,40,1003.32
2009,05,05,11,41,1003.35
2009,05,05,11,42,1003.29
2009,05,05,11,43,1003.35
2009,05,05,11,44,1003.39
2009,05,05,11,45,1003.39
2009,05,05,11,46,1003.39
2009,05,05,11,47,1003.39
2009,05,05,11,48,1003.42
2009,05,05,11,49,1003.46
2009,05,05,11,50,1003.69
2009,05,05,11,51,1003.56
2009,05,05,11,52,1003.59
2009,05,05,11,53,1003.66
2009,05,05,11,54,1003.56
2009,05,05,11,55,1003.66
2009,05,05,11,56,1003.66
2009,05,05,11,57,1003.62
2009,05,05,11,58,1003.73
2009,05,05,11,59,1003.73
2009,05,05,12,00,1003.83
2009,05,05,12,01,1003.86
2009,05,05,12,02,1003.86
2009,05,05,12,03,1003.93
2009,05,05,12,04,1003.96
2009,05,05,12,05,1003.96
2009,05,05,12,06,1004.00
2009,05,05,12,07,1004.00
2009,05,05,12,08,1004.00
2009,05,05,12,09,1004.06
2009,05,05,12,10,1004.06
2009,05,05,12,11,1004.13
2009,05,05,12,12,1004.17
2009,05,05,12,13,1004.20
2009,05,05,12,14,1004.23
2009,05,05,12,15,1004.17
2009,05,05,12,16,1004.13
2009,05,05,12,17,1004.13
2009,05,05,12,18,1004.13
2009,05,05,12,19,1004.20
2009,05,05,12,20,1004.17
2009,05,05,12,21,1004.20
2009,05,05,12,22,1004.34
2009,05,05,12,23,1004.34
2009,05,05,12,24,1004.30
2009,05,05,12,25,1004.37
2009,05,05,12,26,1004.30
2009,05,05,12,27,1004.17
2009,05,05,12,28,1004.13
2009,05,05,12,29,1004.27
2009,05,05,12,30,1004.34
2009,05,05,12,31,1004.37
2009,05,05,12,32,1004.40
2009,05,05,12,33,1004.40
2009,05,05,12,34,1004.44
2009,05,05,12,35,1004.44
2009,05,05,12,36,1004.44
2009,05,05,12,37,1004.44
2009,05,05,12,38,1004.40
2009,05,05,12,39,1004.44
2009,05,05,12,40,1004.50
2009,05,05,12,41,1004.50
2009,05,05,12,42,1004.50
2009,05,05,12,43,1004.61
2009,05,05,12,44,1004.67
2009,05,05,12,45,1004.67
2009,05,05,12,46,1004.67
2009,05,05,12,47,1004.64
2009,05,05,12,48,1004.67
2009,05,05,12,49,1004.74
2009,05,05,12,50,1004.74
2009,05,05,12,51,1004.78
2009,05,05,12,52,1004.74
2009,05,05,12,53,1004.84
2009,05,05,12,54,1004.81
2009,05,05,12,55,1004.84
2009,05,05,12,56,1004.84
2009,05,05,12,57,1004.84
2009,05,05,12,58,1004.84
2009,05,05,12,59,1004.84
2009,05,05,13,00,1004.91
2009,05,05,13,01,1004.91
2009,05,05,13,02,1004.98
2009,05,05,13,03,1004.88
2009,05,05,13,04,1004.88
2009,05,05,13,05,1004.95
2009,05,05,13,06,1004.95
2009,05,05,13,07,1005.08
2009,05,05,13,08,1005.18
2009,05,05,13,09,1004.91
2009,05,05,13,10,1004.95
2009,05,05,13,11,1004.95
2009,05,05,13,12,1005.05
2009,05,05,13,13,1005.05
2009,05,05,13,14,1005.15
2009,05,05,13,15,1005.08
2009,05,05,13,16,1005.05
2009,05,05,13,17,1005.22
2009,05,05,13,18,1005.15
2009,05,05,13,19,1005.18
2009,05,05,13,20,1005.08
2009,05,05,13,21,1005.22
2009,05,05,13,22,1005.25
2009,05,05,13,23,1005.22
2009,05,05,13,24,1005.18
2009,05,05,13,25,1005.25
2009,05,05,13,26,1005.28
2009,05,05,13,27,1005.25
2009,05,05,13,28,1005.25
2009,05,05,13,29,1005.28
2009,05,05,13,30,1005.32
2009,05,05,13,31,1005.32
2009,05,05,13,32,1005.25
2009,05,05,13,33,1005.25
2009,05,05,13,34,1005.32
2009,05,05,13,35,1005.42
2009,05,05,13,36,1005.35
2009,05,05,13,37,1005.32
2009,05,05,13,38,1005.35
2009,05,05,13,39,1005.35
2009,05,05,13,40,1005.35
2009,05,05,13,41,1005.32
2009,05,05,13,42,1005.35
2009,05,05,13,43,1005.42
2009,05,05,13,44,1005.42
2009,05,05,13,45,1005.45
2009,05,05,13,46,1005.45
2009,05,05,13,47,1005.45
2009,05,05,13,48,1005.45
2009,05,05,13,49,1005.49
2009,05,05,13,50,1005.35
2009,05,05,13,51,1005.35
2009,05,05,13,52,1005.39
2009,05,05,13,53,1005.45
2009,05,05,13,54,1005.45
2009,05,05,13,55,1005.49
2009,05,05,13,56,1005.49
2009,05,05,13,57,1005.55
2009,05,05,13,58,1005.59
2009,05,05,13,59,1005.52
2009,05,05,14,00,1005.59
2009,05,05,14,01,1005.68
2009,05,05,14,02,1005.76
2009,05,05,14,03,1005.79
2009,05,05,14,04,1005.76
2009,05,05,14,05,1005.72
2009,05,05,14,06,1005.76
2009,05,05,14,07,1005.79
2009,05,05,14,08,1005.86
2009,05,05,14,09,1005.83
2009,05,05,14,10,1005.76
2009,05,05,14,11,1005.83
2009,05,05,14,12,1005.79
2009,05,05,14,13,1005.86
2009,05,05,14,14,1005.89
2009,05,05,14,15,1005.93
2009,05,05,14,16,1005.89
2009,05,05,14,17,1005.89
2009,05,05,14,18,1005.93
2009,05,05,14,19,1005.99
2009,05,05,14,20,1005.96
2009,05,05,14,21,1005.96
2009,05,05,14,22,1005.99
2009,05,05,14,23,1005.99
2009,05,05,14,24,1006.03
2009,05,05,14,25,1005.99
2009,05,05,14,26,1006.06
2009,05,05,14,27,1006.10
2009,05,05,14,28,1006.16
2009,05,05,14,29,1006.16
2009,05,05,14,30,1006.20
2009,05,05,14,31,1006.27
2009,05,05,14,32,1006.27
2009,05,05,14,33,1006.33
2009,05,05,14,34,1006.33
2009,05,05,14,35,1006.33
2009,05,05,14,36,1006.33
2009,05,05,14,37,1006.37
2009,05,05,14,38,1006.44
2009,05,05,14,39,1006.44
2009,05,05,14,40,1006.56
2009,05,05,14,41,1006.54
2009,05,05,14,42,1006.54
2009,05,05,14,43,1006.60
2009,05,05,14,44,1006.57
2009,05,05,14,45,1006.60
2009,05,05,14,46,1006.57
2009,05,05,14,47,1006.57
2009,05,05,14,48,1006.60
2009,05,05,14,49,1006.64
2009,05,05,14,50,1006.67
2009,05,05,14,51,1006.67
2009,05,05,14,52,1006.74
2009,05,05,14,53,1006.74
2009,05,05,14,54,1006.74
2009,05,05,14,55,1006.74
2009,05,05,14,56,1006.74
2009,05,05,14,57,1006.74
2009,05,05,14,58,1006.77
2009,05,05,14,59,1006.81
2009,05,05,15,00,1006.77
2009,05,05,15,01,1006.81
2009,05,05,15,02,1006.81
2009,05,05,15,03,1006.77
2009,05,05,15,04,1006.84
2009,05,05,15,05,1006.81
2009,05,05,15,06,1006.74
2009,05,05,15,07,1006.81
2009,05,05,15,08,1006.81
2009,05,05,15,09,1006.77
2009,05,05,15,10,1006.84
2009,05,05,15,11,1006.84
2009,05,05,15,12,1006.91
2009,05,05,15,13,1006.88
2009,05,05,15,14,1006.94
2009,05,05,15,15,1006.91
2009,05,05,15,16,1006.94
2009,05,05,15,17,1006.94
2009,05,05,15,18,1006.91
2009,05,05,15,19,1006.91
2009,05,05,15,20,1006.84
2009,05,05,15,21,1006.81
2009,05,05,15,22,1006.84
2009,05,05,15,23,1006.88
2009,05,05,15,24,1006.84
2009,05,05,15,25,1006.94
2009,05,05,15,26,1007.01
2009,05,05,15,27,1007.04
2009,05,05,15,28,1007.01
2009,05,05,15,29,1007.04
2009,05,05,15,30,1007.04
2009,05,05,15,31,1007.04
2009,05,05,15,32,1007.04
2009,05,05,15,33,1007.04
2009,05,05,15,34,1007.08
2009,05,05,15,35,1007.11
2009,05,05,15,36,1007.08
2009,05,05,15,37,1007.15
2009,05,05,15,38,1007.15
2009,05,05,15,39,1007.11
2009,05,05,15,40,1007.08
2009,05,05,15,41,1007.08
2009,05,05,15,42,1007.11
2009,05,05,15,43,1007.18
2009,05,05,15,44,1007.15
2009,05,05,15,45,1007.18
2009,05,05,15,46,1007.15
2009,05,05,15,47,1007.18
2009,05,05,15,48,1007.18
2009,05,05,15,49,1007.18
2009,05,05,15,50,1007.28
2009,05,05,15,51,1007.25
2009,05,05,15,52,1007.18
2009,05,05,15,53,1007.25
2009,05,05,15,54,1007.32
2009,05,05,15,55,1007.22
2009,05,05,15,56,1007.25
2009,05,05,15,57,1007.21
2009,05,05,15,58,1007.25
2009,05,05,15,59,1007.25
2009,05,05,16,00,1007.25
2009,05,05,16,01,1007.25
2009,05,05,16,02,1007.28
2009,05,05,16,03,1007.32
2009,05,05,16,04,1007.38
2009,05,05,16,05,1007.38
2009,05,05,16,06,1007.35
2009,05,05,16,07,1007.38
2009,05,05,16,08,1007.42
2009,05,05,16,09,1007.45
2009,05,05,16,10,1007.48
2009,05,05,16,11,1007.45
2009,05,05,16,12,1007.48
2009,05,05,16,13,1007.52
2009,05,05,16,14,1007.52
2009,05,05,16,15,1007.52
2009,05,05,16,16,1007.55
2009,05,05,16,17,1007.55
2009,05,05,16,18,1007.45